"Time","Value","Approval","myLocation"
"2023-04-21 00:00",3.56133409044463,"Approved","OW362"
"2023-04-21 01:00",3.56134862931714,"Approved","OW362"
"2023-04-21 02:00",3.56136316818965,"Approved","OW362"
"2023-04-21 03:00",3.56037770706216,"Approved","OW362"
"2023-04-21 04:00",3.55639224593466,"Approved","OW362"
"2023-04-21 05:00",3.56040678480717,"Approved","OW362"
"2023-04-21 06:00",3.56042132367968,"Approved","OW362"
"2023-04-21 07:00",3.56043586255219,"Approved","OW362"
"2023-04-21 08:00",3.56045040142469,"Approved","OW362"
"2023-04-21 09:00",3.5594649402972,"Approved","OW362"
"2023-04-21 10:00",3.56047947916971,"Approved","OW362"
"2023-04-21 11:00",3.55949401804222,"Approved","OW362"
"2023-04-21 12:00",3.55950855691472,"Approved","OW362"
"2023-04-21 13:00",3.55952309578723,"Approved","OW362"
"2023-04-21 14:00",3.55953763465974,"Approved","OW362"
"2023-04-21 15:00",3.56055217353225,"Approved","OW362"
"2023-04-21 16:00",3.55956671240475,"Approved","OW362"
"2023-04-21 17:00",3.55958125127726,"Approved","OW362"
"2023-04-21 18:00",3.55959579014977,"Approved","OW362"
"2023-04-21 19:00",3.56061032902228,"Approved","OW362"
"2023-04-21 20:00",3.55962486789478,"Approved","OW362"
"2023-04-21 21:00",3.55963940676729,"Approved","OW362"
"2023-04-21 22:00",3.5596539456398,"Approved","OW362"
"2023-04-21 23:00",3.55866848451231,"Approved","OW362"
"2023-04-22 00:00",3.55868302338481,"Approved","OW362"
"2023-04-22 01:00",3.55969756225732,"Approved","OW362"
"2023-04-22 02:00",3.55971210112983,"Approved","OW362"
"2023-04-22 03:00",3.55872664000234,"Approved","OW362"
"2023-04-22 04:00",3.55874117887484,"Approved","OW362"
"2023-04-22 05:00",3.55875571774735,"Approved","OW362"
"2023-04-22 06:00",3.55877025661986,"Approved","OW362"
"2023-04-22 07:00",3.55878479549237,"Approved","OW362"
"2023-04-22 08:00",3.55879933436487,"Approved","OW362"
"2023-04-22 09:00",3.55781387323738,"Approved","OW362"
"2023-04-22 10:00",3.55882841210989,"Approved","OW362"
"2023-04-22 11:00",3.5578429509824,"Approved","OW362"
"2023-04-22 12:00",3.5588574898549,"Approved","OW362"
"2023-04-22 13:00",3.55787202872741,"Approved","OW362"
"2023-04-22 14:00",3.55788656759992,"Approved","OW362"
"2023-04-22 15:00",3.55790110647243,"Approved","OW362"
"2023-04-22 16:00",3.55891564534493,"Approved","OW362"
"2023-04-22 17:00",3.55793018421744,"Approved","OW362"
"2023-04-22 18:00",3.55794472308995,"Approved","OW362"
"2023-04-22 19:00",3.55795926196246,"Approved","OW362"
"2023-04-22 20:00",3.55797380083496,"Approved","OW362"
"2023-04-22 21:00",3.55798833970747,"Approved","OW362"
"2023-04-22 22:00",3.55800287857998,"Approved","OW362"
"2023-04-22 23:00",3.55701741745249,"Approved","OW362"
"2023-04-23 00:00",3.55703195632499,"Approved","OW362"
"2023-04-23 01:00",3.5570464951975,"Approved","OW362"
"2023-04-23 02:00",3.55606103407001,"Approved","OW362"
"2023-04-23 03:00",3.55707557294252,"Approved","OW362"
"2023-04-23 04:00",3.55609011181502,"Approved","OW362"
"2023-04-23 05:00",3.55810465068753,"Approved","OW362"
"2023-04-23 06:00",3.55611918956004,"Approved","OW362"
"2023-04-23 07:00",3.55613372843255,"Approved","OW362"
"2023-04-23 08:00",3.55514826730505,"Approved","OW362"
"2023-04-23 09:00",3.55516280617756,"Approved","OW362"
"2023-04-23 10:00",3.55517734505007,"Approved","OW362"
"2023-04-23 11:00",3.55519188392258,"Approved","OW362"
"2023-04-23 12:00",3.55420642279508,"Approved","OW362"
"2023-04-23 13:00",3.55322096166759,"Approved","OW362"
"2023-04-23 14:00",3.5532355005401,"Approved","OW362"
"2023-04-23 15:00",3.55225003941261,"Approved","OW362"
"2023-04-23 16:00",3.55226457828511,"Approved","OW362"
"2023-04-23 17:00",3.55227911715762,"Approved","OW362"
"2023-04-23 18:00",3.55229365603013,"Approved","OW362"
"2023-04-23 19:00",3.55330819490264,"Approved","OW362"
"2023-04-23 20:00",3.55232273377514,"Approved","OW362"
"2023-04-23 21:00",3.55133727264765,"Approved","OW362"
"2023-04-23 22:00",3.55335181152016,"Approved","OW362"
"2023-04-23 23:00",3.55236635039267,"Approved","OW362"
"2023-04-24 00:00",3.55138088926517,"Approved","OW362"
"2023-04-24 01:00",3.55139542813768,"Approved","OW362"
"2023-04-24 02:00",3.55140996701019,"Approved","OW362"
"2023-04-24 03:00",3.5514245058827,"Approved","OW362"
"2023-04-24 04:00",3.5514390447552,"Approved","OW362"
"2023-04-24 05:00",3.55145358362771,"Approved","OW362"
"2023-04-24 06:00",3.55046812250022,"Approved","OW362"
"2023-04-24 07:00",3.55048266137273,"Approved","OW362"
"2023-04-24 08:00",3.54949720024523,"Approved","OW362"
"2023-04-24 09:00",3.54851173911774,"Approved","OW362"
"2023-04-24 10:00",3.54852627799025,"Approved","OW362"
"2023-04-24 11:00",3.54754081686276,"Approved","OW362"
"2023-04-24 12:00",3.54755535573526,"Approved","OW362"
"2023-04-24 13:00",3.54556989460777,"Approved","OW362"
"2023-04-24 14:00",3.54558443348028,"Approved","OW362"
"2023-04-24 15:00",3.54559897235279,"Approved","OW362"
"2023-04-24 16:00",3.54461351122529,"Approved","OW362"
"2023-04-24 17:00",3.5446280500978,"Approved","OW362"
"2023-04-24 18:00",3.54364258897031,"Approved","OW362"
"2023-04-24 19:00",3.54265712784282,"Approved","OW362"
"2023-04-24 20:00",3.54267166671532,"Approved","OW362"
"2023-04-24 21:00",3.54168620558783,"Approved","OW362"
"2023-04-24 22:00",3.54170074446034,"Approved","OW362"
"2023-04-24 23:00",3.54071528333285,"Approved","OW362"
"2023-04-25 00:00",3.54072982220535,"Approved","OW362"
"2023-04-25 01:00",3.54074436107786,"Approved","OW362"
"2023-04-25 02:00",3.53975889995037,"Approved","OW362"
"2023-04-25 03:00",3.53977343882288,"Approved","OW362"
"2023-04-25 04:00",3.53878797769538,"Approved","OW362"
"2023-04-25 05:00",3.53980251656789,"Approved","OW362"
"2023-04-25 06:00",3.5398170554404,"Approved","OW362"
"2023-04-25 07:00",3.53983159431291,"Approved","OW362"
"2023-04-25 08:00",3.53984613318541,"Approved","OW362"
"2023-04-25 09:00",3.53986067205792,"Approved","OW362"
"2023-04-25 10:00",3.53987521093043,"Approved","OW362"
"2023-04-25 11:00",3.53888974980294,"Approved","OW362"
"2023-04-25 12:00",3.53890428867544,"Approved","OW362"
"2023-04-25 13:00",3.53891882754795,"Approved","OW362"
"2023-04-25 14:00",3.53893336642046,"Approved","OW362"
"2023-04-25 15:00",3.53894790529297,"Approved","OW362"
"2023-04-25 16:00",3.53896244416547,"Approved","OW362"
"2023-04-25 17:00",3.53997698303798,"Approved","OW362"
"2023-04-25 18:00",3.53899152191049,"Approved","OW362"
"2023-04-25 19:00",3.538006060783,"Approved","OW362"
"2023-04-25 20:00",3.5390205996555,"Approved","OW362"
"2023-04-25 21:00",3.53803513852801,"Approved","OW362"
"2023-04-25 22:00",3.53704967740052,"Approved","OW362"
"2023-04-25 23:00",3.53806421627303,"Approved","OW362"
"2023-04-26 00:00",3.53807875514554,"Approved","OW362"
"2023-04-26 01:00",3.53809329401804,"Approved","OW362"
"2023-04-26 02:00",3.53710783289055,"Approved","OW362"
"2023-04-26 03:00",3.53812237176306,"Approved","OW362"
"2023-04-26 04:00",3.53713691063556,"Approved","OW362"
"2023-04-26 05:00",3.53715144950807,"Approved","OW362"
"2023-04-26 06:00",3.53616598838058,"Approved","OW362"
"2023-04-26 07:00",3.53718052725309,"Approved","OW362"
"2023-04-26 08:00",3.53719506612559,"Approved","OW362"
"2023-04-26 09:00",3.5362096049981,"Approved","OW362"
"2023-04-26 10:00",3.53622414387061,"Approved","OW362"
"2023-04-26 11:00",3.53623868274312,"Approved","OW362"
"2023-04-26 12:00",3.53825322161563,"Approved","OW362"
"2023-04-26 13:00",3.53626776048813,"Approved","OW362"
"2023-04-26 14:00",3.53628229936064,"Approved","OW362"
"2023-04-26 15:00",3.53629683823315,"Approved","OW362"
"2023-04-26 16:00",3.53731137710566,"Approved","OW362"
"2023-04-26 17:00",3.53732591597816,"Approved","OW362"
"2023-04-26 18:00",3.53734045485067,"Approved","OW362"
"2023-04-26 19:00",3.53735499372318,"Approved","OW362"
"2023-04-26 20:00",3.53636953259568,"Approved","OW362"
"2023-04-26 21:00",3.53638407146819,"Approved","OW362"
"2023-04-26 22:00",3.5363986103407,"Approved","OW362"
"2023-04-26 23:00",3.53541314921321,"Approved","OW362"
"2023-04-27 00:00",3.53542768808572,"Approved","OW362"
"2023-04-27 01:00",3.53544222695822,"Approved","OW362"
"2023-04-27 02:00",3.53545676583073,"Approved","OW362"
"2023-04-27 03:00",3.53547130470324,"Approved","OW362"
"2023-04-27 04:00",3.53548584357575,"Approved","OW362"
"2023-04-27 05:00",3.53450038244825,"Approved","OW362"
"2023-04-27 06:00",3.53451492132076,"Approved","OW362"
"2023-04-27 07:00",3.53452946019327,"Approved","OW362"
"2023-04-27 08:00",3.53454399906578,"Approved","OW362"
"2023-04-27 09:00",3.53355853793828,"Approved","OW362"
"2023-04-27 10:00",3.53357307681079,"Approved","OW362"
"2023-04-27 11:00",3.5335876156833,"Approved","OW362"
"2023-04-27 12:00",3.53360215455581,"Approved","OW362"
"2023-04-27 13:00",3.53461669342831,"Approved","OW362"
"2023-04-27 14:00",3.53363123230082,"Approved","OW362"
"2023-04-27 15:00",3.53364577117333,"Approved","OW362"
"2023-04-27 16:00",3.53466031004584,"Approved","OW362"
"2023-04-27 17:00",3.53467484891834,"Approved","OW362"
"2023-04-27 18:00",3.53568938779085,"Approved","OW362"
"2023-04-27 19:00",3.53470392666336,"Approved","OW362"
"2023-04-27 20:00",3.53471846553587,"Approved","OW362"
"2023-04-27 21:00",3.53373300440837,"Approved","OW362"
"2023-04-27 22:00",3.53474754328088,"Approved","OW362"
"2023-04-27 23:00",3.53476208215339,"Approved","OW362"
"2023-04-28 00:00",3.5337766210259,"Approved","OW362"
"2023-04-28 01:00",3.5337911598984,"Approved","OW362"
"2023-04-28 02:00",3.53380569877091,"Approved","OW362"
"2023-04-28 03:00",3.53282023764342,"Approved","OW362"
"2023-04-28 04:00",3.53383477651593,"Approved","OW362"
"2023-04-28 05:00",3.53284931538843,"Approved","OW362"
"2023-04-28 06:00",3.53286385426094,"Approved","OW362"
"2023-04-28 07:00",3.53287839313345,"Approved","OW362"
"2023-04-28 08:00",3.53189293200596,"Approved","OW362"
"2023-04-28 09:00",3.53290747087846,"Approved","OW362"
"2023-04-28 10:00",3.53192200975097,"Approved","OW362"
"2023-04-28 11:00",3.53293654862348,"Approved","OW362"
"2023-04-28 12:00",3.53195108749599,"Approved","OW362"
"2023-04-28 13:00",3.53196562636849,"Approved","OW362"
"2023-04-28 14:00",3.531980165241,"Approved","OW362"
"2023-04-28 15:00",3.53199470411351,"Approved","OW362"
"2023-04-28 16:00",3.53200924298602,"Approved","OW362"
"2023-04-28 17:00",3.53102378185852,"Approved","OW362"
"2023-04-28 18:00",3.53203832073103,"Approved","OW362"
"2023-04-28 19:00",3.53205285960354,"Approved","OW362"
"2023-04-28 20:00",3.53106739847605,"Approved","OW362"
"2023-04-28 21:00",3.53208193734855,"Approved","OW362"
"2023-04-28 22:00",3.53109647622106,"Approved","OW362"
"2023-04-28 23:00",3.53111101509357,"Approved","OW362"
"2023-04-29 00:00",3.53012555396608,"Approved","OW362"
"2023-04-29 01:00",3.53014009283858,"Approved","OW362"
"2023-04-29 02:00",3.53015463171109,"Approved","OW362"
"2023-04-29 03:00",3.5301691705836,"Approved","OW362"
"2023-04-29 04:00",3.53018370945611,"Approved","OW362"
"2023-04-29 05:00",3.53019824832861,"Approved","OW362"
"2023-04-29 06:00",3.53021278720112,"Approved","OW362"
"2023-04-29 07:00",3.53022732607363,"Approved","OW362"
"2023-04-29 08:00",3.53024186494614,"Approved","OW362"
"2023-04-29 09:00",3.52825640381864,"Approved","OW362"
"2023-04-29 10:00",3.52827094269115,"Approved","OW362"
"2023-04-29 11:00",3.52828548156366,"Approved","OW362"
"2023-04-29 12:00",3.52830002043617,"Approved","OW362"
"2023-04-29 13:00",3.52631455930867,"Approved","OW362"
"2023-04-29 14:00",3.52632909818118,"Approved","OW362"
"2023-04-29 15:00",3.52634363705369,"Approved","OW362"
"2023-04-29 16:00",3.5253581759262,"Approved","OW362"
"2023-04-29 17:00",3.5253727147987,"Approved","OW362"
"2023-04-29 18:00",3.52538725367121,"Approved","OW362"
"2023-04-29 19:00",3.52440179254372,"Approved","OW362"
"2023-04-29 20:00",3.52541633141623,"Approved","OW362"
"2023-04-29 21:00",3.52443087028873,"Approved","OW362"
"2023-04-29 22:00",3.52444540916124,"Approved","OW362"
"2023-04-29 23:00",3.52445994803375,"Approved","OW362"
"2023-04-30 00:00",3.51747448690626,"Approved","OW362"
"2023-04-30 01:00",3.52348902577876,"Approved","OW362"
"2023-04-30 02:00",3.52250356465127,"Approved","OW362"
"2023-04-30 03:00",3.52351810352378,"Approved","OW362"
"2023-04-30 04:00",3.52353264239629,"Approved","OW362"
"2023-04-30 05:00",3.52154718126879,"Approved","OW362"
"2023-04-30 06:00",3.5215617201413,"Approved","OW362"
"2023-04-30 07:00",3.52057625901381,"Approved","OW362"
"2023-04-30 08:00",3.51959079788632,"Approved","OW362"
"2023-04-30 09:00",3.51960533675882,"Approved","OW362"
"2023-04-30 10:00",3.51861987563133,"Approved","OW362"
"2023-04-30 11:00",3.51763441450384,"Approved","OW362"
"2023-04-30 12:00",3.51664895337635,"Approved","OW362"
"2023-04-30 13:00",3.51566349224885,"Approved","OW362"
"2023-04-30 14:00",3.51567803112136,"Approved","OW362"
"2023-04-30 15:00",3.51469256999387,"Approved","OW362"
"2023-04-30 16:00",3.51370710886638,"Approved","OW362"
"2023-04-30 17:00",3.51372164773888,"Approved","OW362"
"2023-04-30 18:00",3.51273618661139,"Approved","OW362"
"2023-04-30 19:00",3.5127507254839,"Approved","OW362"
"2023-04-30 20:00",3.51176526435641,"Approved","OW362"
"2023-04-30 21:00",3.51177980322891,"Approved","OW362"
"2023-04-30 22:00",3.51079434210142,"Approved","OW362"
"2023-04-30 23:00",3.50980888097393,"Approved","OW362"
"2023-05-01 00:00",3.50982341984644,"Approved","OW362"
"2023-05-01 01:00",3.50883795871894,"Approved","OW362"
"2023-05-01 02:00",3.50685249759145,"Approved","OW362"
"2023-05-01 03:00",3.50686703646396,"Approved","OW362"
"2023-05-01 04:00",3.50588157533647,"Approved","OW362"
"2023-05-01 05:00",3.50489611420897,"Approved","OW362"
"2023-05-01 06:00",3.50391065308148,"Approved","OW362"
"2023-05-01 07:00",3.50292519195399,"Approved","OW362"
"2023-05-01 08:00",3.5019397308265,"Approved","OW362"
"2023-05-01 09:00",3.499954269699,"Approved","OW362"
"2023-05-01 10:00",3.49896880857151,"Approved","OW362"
"2023-05-01 11:00",3.49798334744402,"Approved","OW362"
"2023-05-01 12:00",3.49599788631653,"Approved","OW362"
"2023-05-01 13:00",3.49501242518903,"Approved","OW362"
"2023-05-01 14:00",3.49402696406154,"Approved","OW362"
"2023-05-01 15:00",3.49304150293405,"Approved","OW362"
"2023-05-01 16:00",3.48605604180656,"Approved","OW362"
"2023-05-01 17:00",3.49007058067906,"Approved","OW362"
"2023-05-01 18:00",3.48908511955157,"Approved","OW362"
"2023-05-01 19:00",3.48709965842408,"Approved","OW362"
"2023-05-01 20:00",3.48611419729659,"Approved","OW362"
"2023-05-01 21:00",3.48512873616909,"Approved","OW362"
"2023-05-01 22:00",3.4841432750416,"Approved","OW362"
"2023-05-01 23:00",3.48315781391411,"Approved","OW362"
"2023-05-02 00:00",3.48117235278662,"Approved","OW362"
"2023-05-02 01:00",3.48018689165912,"Approved","OW362"
"2023-05-02 02:00",3.47920143053163,"Approved","OW362"
"2023-05-02 03:00",3.47821596940414,"Approved","OW362"
"2023-05-02 04:00",3.47723050827665,"Approved","OW362"
"2023-05-02 05:00",3.47624504714915,"Approved","OW362"
"2023-05-02 06:00",3.47425958602166,"Approved","OW362"
"2023-05-02 07:00",3.47327412489417,"Approved","OW362"
"2023-05-02 08:00",3.47228866376668,"Approved","OW362"
"2023-05-02 09:00",3.47130320263918,"Approved","OW362"
"2023-05-02 10:00",3.46931774151169,"Approved","OW362"
"2023-05-02 11:00",3.4673322803842,"Approved","OW362"
"2023-05-02 12:00",3.46634681925671,"Approved","OW362"
"2023-05-02 13:00",3.46536135812921,"Approved","OW362"
"2023-05-02 14:00",3.46437589700172,"Approved","OW362"
"2023-05-02 15:00",3.46139043587423,"Approved","OW362"
"2023-05-02 16:00",3.45940497474674,"Approved","OW362"
"2023-05-02 17:00",3.45841951361925,"Approved","OW362"
"2023-05-02 18:00",3.45643405249175,"Approved","OW362"
"2023-05-02 19:00",3.45544859136426,"Approved","OW362"
"2023-05-02 20:00",3.45446313023677,"Approved","OW362"
"2023-05-02 21:00",3.45347766910928,"Approved","OW362"
"2023-05-02 22:00",3.45049220798178,"Approved","OW362"
"2023-05-02 23:00",3.44950674685429,"Approved","OW362"
"2023-05-03 00:00",3.4475212857268,"Approved","OW362"
"2023-05-03 01:00",3.44653582459931,"Approved","OW362"
"2023-05-03 02:00",3.44355036347181,"Approved","OW362"
"2023-05-03 03:00",3.44256490234432,"Approved","OW362"
"2023-05-03 04:00",3.44157944121683,"Approved","OW362"
"2023-05-03 05:00",3.43759398008934,"Approved","OW362"
"2023-05-03 06:00",3.43660851896184,"Approved","OW362"
"2023-05-03 07:00",3.43462305783435,"Approved","OW362"
"2023-05-03 08:00",3.43163759670686,"Approved","OW362"
"2023-05-03 09:00",3.43065213557937,"Approved","OW362"
"2023-05-03 10:00",3.42866667445187,"Approved","OW362"
"2023-05-03 11:00",3.42568121332438,"Approved","OW362"
"2023-05-03 12:00",3.42369575219689,"Approved","OW362"
"2023-05-03 13:00",3.4217102910694,"Approved","OW362"
"2023-05-03 14:00",3.4197248299419,"Approved","OW362"
"2023-05-03 15:00",3.41673936881441,"Approved","OW362"
"2023-05-03 16:00",3.41475390768692,"Approved","OW362"
"2023-05-03 17:00",3.41276844655943,"Approved","OW362"
"2023-05-03 18:00",3.40978298543193,"Approved","OW362"
"2023-05-03 19:00",3.40879752430444,"Approved","OW362"
"2023-05-03 20:00",3.40581206317695,"Approved","OW362"
"2023-05-03 21:00",3.40382660204946,"Approved","OW362"
"2023-05-03 22:00",3.40184114092196,"Approved","OW362"
"2023-05-03 23:00",3.39885567979447,"Approved","OW362"
"2023-05-04 00:00",3.39787021866698,"Approved","OW362"
"2023-05-04 01:00",3.39488475753949,"Approved","OW362"
"2023-05-04 02:00",3.39289929641199,"Approved","OW362"
"2023-05-04 03:00",3.3909138352845,"Approved","OW362"
"2023-05-04 04:00",3.38892837415701,"Approved","OW362"
"2023-05-04 05:00",3.38594291302952,"Approved","OW362"
"2023-05-04 06:00",3.38395745190202,"Approved","OW362"
"2023-05-04 07:00",3.38097199077453,"Approved","OW362"
"2023-05-04 08:00",3.37898652964704,"Approved","OW362"
"2023-05-04 09:00",3.37600106851955,"Approved","OW362"
"2023-05-04 10:00",3.37401560739205,"Approved","OW362"
"2023-05-04 11:00",3.37203014626456,"Approved","OW362"
"2023-05-04 12:00",3.36904468513707,"Approved","OW362"
"2023-05-04 13:00",3.36705922400958,"Approved","OW362"
"2023-05-04 14:00",3.36407376288208,"Approved","OW362"
"2023-05-04 15:00",3.36208830175459,"Approved","OW362"
"2023-05-04 16:00",3.3601028406271,"Approved","OW362"
"2023-05-04 17:00",3.35711737949961,"Approved","OW362"
"2023-05-04 18:00",3.35513191837211,"Approved","OW362"
"2023-05-04 19:00",3.35314645724462,"Approved","OW362"
"2023-05-04 20:00",3.35016099611713,"Approved","OW362"
"2023-05-04 21:00",3.35017553498964,"Approved","OW362"
"2023-05-04 22:00",3.34619007386214,"Approved","OW362"
"2023-05-04 23:00",3.34320461273465,"Approved","OW362"
"2023-05-05 00:00",3.34221915160716,"Approved","OW362"
"2023-05-05 01:00",3.34023369047967,"Approved","OW362"
"2023-05-05 02:00",3.33724822935217,"Approved","OW362"
"2023-05-05 03:00",3.33526276822468,"Approved","OW362"
"2023-05-05 04:00",3.33327730709719,"Approved","OW362"
"2023-05-05 05:00",3.3312918459697,"Approved","OW362"
"2023-05-05 06:00",3.3283063848422,"Approved","OW362"
"2023-05-05 07:00",3.32532092371471,"Approved","OW362"
"2023-05-05 08:00",3.32333546258722,"Approved","OW362"
"2023-05-05 09:00",3.32035000145973,"Approved","OW362"
"2023-05-05 10:00",3.31736454033223,"Approved","OW362"
"2023-05-05 11:00",3.31537907920474,"Approved","OW362"
"2023-05-05 12:00",3.31239361807725,"Approved","OW362"
"2023-05-05 13:00",3.31040815694976,"Approved","OW362"
"2023-05-05 14:00",3.30842269582226,"Approved","OW362"
"2023-05-05 15:00",3.30643723469477,"Approved","OW362"
"2023-05-05 16:00",3.30345177356728,"Approved","OW362"
"2023-05-05 17:00",3.30146631243979,"Approved","OW362"
"2023-05-05 18:00",3.29948085131229,"Approved","OW362"
"2023-05-05 19:00",3.2964953901848,"Approved","OW362"
"2023-05-05 20:00",3.29350992905731,"Approved","OW362"
"2023-05-05 21:00",3.29252446792982,"Approved","OW362"
"2023-05-05 22:00",3.28953900680232,"Approved","OW362"
"2023-05-05 23:00",3.28655354567483,"Approved","OW362"
"2023-05-06 00:00",3.28356808454734,"Approved","OW362"
"2023-05-06 01:00",3.28158262341985,"Approved","OW362"
"2023-05-06 02:00",3.27959716229235,"Approved","OW362"
"2023-05-06 03:00",3.27761170116486,"Approved","OW362"
"2023-05-06 04:00",3.27462624003737,"Approved","OW362"
"2023-05-06 05:00",3.27364077890988,"Approved","OW362"
"2023-05-06 06:00",3.27065531778238,"Approved","OW362"
"2023-05-06 07:00",3.26766985665489,"Approved","OW362"
"2023-05-06 08:00",3.2646843955274,"Approved","OW362"
"2023-05-06 09:00",3.26269893439991,"Approved","OW362"
"2023-05-06 10:00",3.25971347327241,"Approved","OW362"
"2023-05-06 11:00",3.25772801214492,"Approved","OW362"
"2023-05-06 12:00",3.25474255101743,"Approved","OW362"
"2023-05-06 13:00",3.25175708988994,"Approved","OW362"
"2023-05-06 14:00",3.25077162876244,"Approved","OW362"
"2023-05-06 15:00",3.24778616763495,"Approved","OW362"
"2023-05-06 16:00",3.24580070650746,"Approved","OW362"
"2023-05-06 17:00",3.24381524537997,"Approved","OW362"
"2023-05-06 18:00",3.24182978425247,"Approved","OW362"
"2023-05-06 19:00",3.23884432312498,"Approved","OW362"
"2023-05-06 20:00",3.23685886199749,"Approved","OW362"
"2023-05-06 21:00",3.23287340087,"Approved","OW362"
"2023-05-06 22:00",3.2318879397425,"Approved","OW362"
"2023-05-06 23:00",3.22990247861501,"Approved","OW362"
"2023-05-07 00:00",3.22691701748752,"Approved","OW362"
"2023-05-07 01:00",3.22593155636003,"Approved","OW362"
"2023-05-07 02:00",3.22394609523253,"Approved","OW362"
"2023-05-07 03:00",3.22196063410504,"Approved","OW362"
"2023-05-07 04:00",3.21997517297755,"Approved","OW362"
"2023-05-07 05:00",3.21798971185006,"Approved","OW362"
"2023-05-07 06:00",3.21600425072256,"Approved","OW362"
"2023-05-07 07:00",3.21401878959507,"Approved","OW362"
"2023-05-07 08:00",3.21203332846758,"Approved","OW362"
"2023-05-07 09:00",3.21004786734009,"Approved","OW362"
"2023-05-07 10:00",3.20706240621259,"Approved","OW362"
"2023-05-07 11:00",3.2050769450851,"Approved","OW362"
"2023-05-07 12:00",3.20309148395761,"Approved","OW362"
"2023-05-07 13:00",3.20110602283012,"Approved","OW362"
"2023-05-07 14:00",3.19912056170262,"Approved","OW362"
"2023-05-07 15:00",3.19913510057513,"Approved","OW362"
"2023-05-07 16:00",3.19614963944764,"Approved","OW362"
"2023-05-07 17:00",3.19416417832015,"Approved","OW362"
"2023-05-07 18:00",3.19317871719265,"Approved","OW362"
"2023-05-07 19:00",3.19019325606516,"Approved","OW362"
"2023-05-07 20:00",3.18920779493767,"Approved","OW362"
"2023-05-07 21:00",3.18722233381018,"Approved","OW362"
"2023-05-07 22:00",3.18523687268268,"Approved","OW362"
"2023-05-07 23:00",3.18425141155519,"Approved","OW362"
"2023-05-08 00:00",3.1822659504277,"Approved","OW362"
"2023-05-08 01:00",3.18128048930021,"Approved","OW362"
"2023-05-08 02:00",3.18029502817271,"Approved","OW362"
"2023-05-08 03:00",3.17930956704522,"Approved","OW362"
"2023-05-08 04:00",3.17732410591773,"Approved","OW362"
"2023-05-08 05:00",3.17633864479024,"Approved","OW362"
"2023-05-08 06:00",3.17435318366274,"Approved","OW362"
"2023-05-08 07:00",3.17236772253525,"Approved","OW362"
"2023-05-08 08:00",3.17138226140776,"Approved","OW362"
"2023-05-08 09:00",3.16939680028027,"Approved","OW362"
"2023-05-08 10:00",3.16741133915278,"Approved","OW362"
"2023-05-08 11:00",3.16742587802528,"Approved","OW362"
"2023-05-08 12:00",3.16544041689779,"Approved","OW362"
"2023-05-08 13:00",3.1644549557703,"Approved","OW362"
"2023-05-08 14:00",3.1624694946428,"Approved","OW362"
"2023-05-08 15:00",3.16148403351531,"Approved","OW362"
"2023-05-08 16:00",3.16049857238782,"Approved","OW362"
"2023-05-08 17:00",3.15851311126033,"Approved","OW362"
"2023-05-08 18:00",3.16152765013284,"Approved","OW362"
"2023-05-08 19:00",3.15654218900534,"Approved","OW362"